Location: Dal�� Lhota
(48.7500°N, 14.0167°E)
Time: 01:25:42
(UTC+00:00)

Cosmos 2026 Rocket - Pass Details

Date: 24 September 2020
Orbit: 940 x 1000 km, 82.9° (Epoch: 29 October)

Event Time Altitude Azimuth Distance (km) Brightness Sun altitude
Rises 18:48:22 0° 351° (N) 3,727 7.5 -18.8°
Reaches altitude 10° 18:50:54 10° 352° (N) 2,778 6.8 -19.2°
Maximum altitude 18:57:19 82° 81° (E) 1,016 4.0 -20.2°
Enters shadow 19:02:16 18° 168° (SSE) 2,242 5.6 -20.9°
